ノヴィチョーノク-ギェルケ彗星

408P/Novichonok-Gerke (2022)

English version
Home page
Updated on June 5, 2024

---------------------------------------------------------------------

・ プロフィール

符号 408P/2020 M7
検出日 2020年6月20日
検出光度 21.9等
検出者 Pan-STARRS 1 telescope (Haleakala)

・ 写真集

・ 軌道要素

Epoch 2024 Mar. 31.0 TT = JDT 2460400.5
T 2022 Oct. 5.66543 TT                                  Rudenko
q   3.4688265            (2000.0)            P               Q
n   0.09540872     Peri.  226.57405     +0.56567179     -0.82283532
a   4.7432643      Node   189.44369     +0.81938298     +0.56827653
e   0.2686837      Incl.   19.35637     +0.09288140     -0.00195299
P  10.3
>From 1702 observations 2011 Sept. 7-2024 Mar. 19, mean residual 0".7.

・ 光度変化

        m1 = 0.3 + 5 logΔ + 25.0 log r(t - 50)

---------------------------------------------------------------------

軌道要素はM.P.E.C. 2024-F34に掲載されたものです。
光度グラフはComet for Windowsで作成したものです。

---------------------------------------------------------------------

Copyright(C) Seiichi Yoshida (comet@aerith.net). All rights reserved.